Location: Bishausen
(51.6334°N, 9.9631°E)
Time: 10:43:31
(UTC+00:00)

Cosmos 1346 Rocket - Pass Details

Date: 23 May 2024
Orbit: 508 x 521 km, 81.2° (Epoch: 18 June)

Event Time Altitude Azimuth Distance (km) Brightness Sun altitude
Rises 00:39:07 0° 342° (NNW) 2,662 7.2 -15.5°
Reaches altitude 10° 00:41:20 10° 335° (NNW) 1,770 6.0 -15.4°
Maximum altitude 00:45:01 42° 264° (W) 753 3.3 -15.2°
Enters shadow 00:46:30 29° 214° (SW) 991 3.5 -15.1°
